Tracking 30986 objects as of 9-Jul-2025
HD Live streaming from Space Station
objects crossing your sky now

CZ-6A DEB

Track CZ-6A DEB now!
10-day predictions


NORAD ID: 54512
Int'l Code: 2022-151JQ
Perigee: 631.6 km
Apogee: 774.7 km
Inclination: 98.6 °
Period: 98.7 minutes
Semi major axis: 7074 km
RCS: Unknown
Launch date: November 11, 2022
Source: People's Republic of China (PRC)
Launch site: Taiyaun Space Center, China (TSC)

Note: This is SATELLITE DEBRIS
Your satellite tracking list
Your tracking list is empty




NASA's NSSDC Master Catalog

Two Line Element Set (TLE):
1 54512U 22151JQ  25189.06821786  .00004926  00000-0  98512-3 0  9990
2 54512  98.6163 228.8548 0101134 275.1299  83.8363 14.59127410137909
Source of the keplerian elements: AFSPC